Location: Middleville
(41.0560°N, 74.8630°W)
Time: 00:28:04
(UTC-05:00)

OTV 5 (USA 277) - Visible Passes

Search period start: 23 November 2017 00:00
Search period end: 03 December 2017 00:00
Orbit: 404 x 417 km, 43.0° (Epoch: 07 September)

Date Brightness Start Highest point End Pass type
(mag) Time Alt. Az. Time Alt. Az. Time Alt. Az.
30 Nov ? 17:59:34 10° SSE 18:00:45 12° SE 18:00:45 12° SE visible
01 Dec ? 18:43:31 10° SW 18:45:03 22° SSW 18:45:03 22° SSW visible
02 Dec ? 17:52:49 10° SSW 17:55:42 26° SSE 17:56:31 23° SE visible
